Zamboanga, Philippines

6:12 PM PHT on February 21, 2017 (GMT +0800)
Zamboanga International

Weather History for RPMZ - December, 2012

Change the Weather History Date:

Friday, December 28, 2012

  Actual Average Record
Temperature  
Mean Temperature 83 °F -  
Max Temperature 92 °F 89 °F - ()
Min Temperature 74 °F 72 °F - ()
Cooling Degree Days 18    
Growing Degree Days 33 (Base 50)    
Moisture  
Dew Point 76 °F    
Average Humidity 76    
Maximum Humidity 98    
Minimum Humidity 58    
Precipitation  
Precipitation 0.00 in 0.04 in - ()
Sea Level Pressure  
Sea Level Pressure 29.78 in    
Wind  
Wind Speed 1 mph ()    
Max Wind Speed 5 mph    
Max Gust Speed -    
Visibility 6.4 miles    
Events      
T = Trace of Precipitation, MM = Missing Value Source: Averaged Metar Reports

Daily Weather History Graph

Daily Weather History Graph

Search for Another Location

Airport or City:

Trip Planner

Search our weather history database for the weather conditions in past years. The results will help you decide how hot, cold, wet, or windy it might be!

Date:

Astronomy

Dec. 28, 2012 Rise Set
Actual Time 6:01 AM PHT 5:45 PM PHT
Civil Twilight 5:38 AM PHT 6:07 PM PHT
Nautical Twilight 5:12 AM PHT 6:33 PM PHT
Astronomical Twilight 4:46 AM PHT 7:00 PM PHT
Moon 5:41 PM PHT (12/28) 5:37 AM PHT (12/28)
Length of Visible Light 12h 28m
Length of Day
11h 43m
Full, 100% of the Moon is Illuminated
Dec 28
Full
Dec 28
Full
Jan 5
Last Quarter
Jan 12
New
Jan 19
First Quarter

Hourly Weather History & Observations

Time (PHT) Temp. Heat Index Dew Point Humidity Pressure Visibility Wind Dir Wind Speed Gust Speed Precip Events Conditions
2:00 AM 76 °F - 74 °F 90% 29.76 in 6 mi Calm Calm - -   Haze
2:00 AM 75.2 °F - 73.4 °F 94% 29.77 in 6.2 mi Calm Calm - N/A   Mostly Cloudy
5:00 AM 74 °F - 74 °F 98% 29.76 in 6 mi Calm Calm - -   Haze
5:00 AM 75.2 °F - 73.4 °F 94% 29.77 in 6.2 mi Calm Calm - N/A   Mostly Cloudy
6:00 AM 75.2 °F - 73.4 °F 94% 29.77 in 6.2 mi Calm Calm - N/A   Mostly Cloudy
8:00 AM 82 °F - 76 °F 76% 29.83 in 7 mi Calm Calm - -   Haze
8:00 AM 82.4 °F 89.5 °F 75.2 °F 79% 29.83 in 6.2 mi Calm Calm - N/A   Partly Cloudy
9:00 AM 86.0 °F 96.9 °F 77.0 °F 74% 29.83 in 6.2 mi NE 4.6 mph - N/A   Partly Cloudy
10:00 AM 87.8 °F 97.6 °F 75.2 °F 66% 29.83 in 6.2 mi East 4.6 mph - N/A   Partly Cloudy
11:00 AM 90 °F - 78 °F 61% 29.81 in 7 mi South 4.5 mph - -   Partly Cloudy
11:00 AM 89.6 °F 104.7 °F 78.8 °F 70% 29.80 in 6.2 mi South 4.6 mph - N/A   Scattered Clouds
12:00 PM 91.4 °F 105.1 °F 77.0 °F 63% 29.80 in 6.2 mi ENE 4.6 mph - N/A   Partly Cloudy
1:00 PM 91.4 °F 102.5 °F 75.2 °F 59% 29.77 in 6.2 mi NE 4.6 mph - N/A   Partly Cloudy
2:00 PM 91 °F - 78 °F 58% 29.74 in 7 mi South 4.5 mph - -   Partly Cloudy
2:00 PM 91.4 °F 107.2 °F 78.8 °F 66% 29.74 in 6.2 mi South 2.3 mph - N/A   Partly Cloudy
3:00 PM 89.6 °F 102.2 °F 77.0 °F 66% 29.74 in 6.2 mi WSW 4.6 mph - N/A   Partly Cloudy
4:00 PM 89.6 °F 104.7 °F 78.8 °F 70% 29.74 in 6.2 mi SSW 2.3 mph - N/A   Partly Cloudy
5:00 PM 88 °F - 76 °F 61% 29.75 in 7 mi WSW 2.2 mph - -   Scattered Clouds
5:00 PM 87.8 °F 99.7 °F 77.0 °F 70% 29.77 in 6.2 mi Calm Calm - N/A   Partly Cloudy
8:00 PM 82 °F - 76 °F 79% 29.79 in 7 mi Calm Calm - -   Scattered Clouds
8:00 PM 82.4 °F 90.9 °F 77.0 °F 84% 29.80 in 6.2 mi Calm Calm - N/A   Scattered Clouds
11:00 PM 78 °F - 73 °F 80% 29.82 in 7 mi Calm Calm - -   Scattered Clouds
11:00 PM 77.0 °F - 73.4 °F 89% 29.83 in 6.2 mi Calm Calm - N/A   Scattered Clouds